Theta_e
352 353 353 354 354 354 354 354 354 354 354 353 353 353 353 353 352 352 352 351 351 351 352 353 354 354 353 353 353 353 354 355 354 354 353 351 348 346 347 346 345 344 341 337 336 338 337 334 334 334 334 334 335 336 336 336 335 334 334 334 334 334 333 331 331 332 331 330 330 331 331 331 332 332 332 332 332 330 330 329 329 329 329 328 328
351 352 353 354 354 354 354 354 354 354 354 353 354 353 353 353 352 352 352 351 352 351 352 353 353 354 353 352 353 353 354 354 354 353 352 350 349 347 347 346 345 344 342 337 336 338 337 335 335 336 336 336 335 336 336 335 335 334 333 334 334 333 333 333 332 332 332 332 331 331 332 333 332 332 332 332 332 331 331 331 330 330 329 329 328
351 352 353 353 354 354 354 354 354 354 354 353 354 353 353 353 353 352 352 351 352 351 352 352 353 353 353 353 353 353 354 354 353 353 351 350 349 347 347 346 345 345 343 339 337 337 338 336 335 336 337 337 336 336 336 336 335 334 334 334 334 334 334 334 334 334 334 333 333 333 334 333 333 333 332 332 333 333 332 332 332 331 331 331 329
350 352 353 353 354 354 354 355 354 354 354 354 354 353 353 354 353 353 352 352 352 351 351 352 352 353 353 353 353 353 353 354 353 353 351 350 349 348 347 346 345 345 344 340 338 337 338 337 336 337 337 337 337 336 336 336 335 334 334 334 335 335 335 335 335 334 334 334 334 335 335 335 335 334 333 333 333 334 334 333 333 332 331 330 328
351 351 352 352 353 354 354 354 354 354 354 354 354 354 354 354 353 353 353 352 352 352 352 352 352 352 353 352 353 353 353 353 352 352 351 350 349 348 348 347 345 345 344 342 339 338 338 338 337 337 338 337 336 336 336 336 335 335 335 335 336 336 336 335 335 335 335 335 335 335 336 336 335 334 334 333 334 334 334 334 333 333 332 330 327
351 352 352 353 353 354 354 354 354 354 354 354 354 354 354 354 354 353 353 353 353 352 352 352 352 352 353 352 352 352 353 353 352 352 351 350 350 349 348 347 346 344 343 342 340 339 338 339 338 337 337 337 336 335 337 337 336 336 335 336 336 336 336 335 335 335 335 335 336 336 336 336 336 335 334 334 334 334 334 334 334 333 332 330 327
352 352 353 353 353 353 354 354 354 355 355 354 354 354 354 354 354 354 353 353 353 353 352 352 352 352 352 352 352 352 352 352 352 351 351 350 349 348 348 347 346 345 344 342 341 340 339 339 339 338 337 337 336 335 336 337 336 336 336 336 336 336 336 335 335 336 336 336 336 336 336 336 336 335 335 334 334 334 334 334 334 333 332 330 327
352 352 353 353 354 353 353 354 354 354 354 354 355 354 355 354 354 354 354 353 353 353 352 352 352 352 352 352 352 352 352 351 351 351 351 350 349 348 348 347 346 345 344 343 341 341 341 339 339 338 337 337 337 336 336 337 336 336 336 336 336 336 336 336 336 336 336 335 336 336 336 336 335 335 335 335 334 334 334 333 333 333 331 329 327
352 352 353 353 354 354 354 354 354 354 354 355 355 355 355 355 354 354 354 354 354 353 353 353 352 352 352 352 352 352 352 351 351 351 351 350 349 348 348 347 346 345 344 342 341 341 340 340 339 339 338 338 337 337 337 337 336 336 336 336 336 336 336 336 336 336 335 335 335 335 335 334 335 335 334 334 334 333 333 332 332 331 330 329 327
352 353 353 354 354 354 355 354 354 354 354 354 355 355 355 355 355 355 355 354 354 354 353 353 353 352 352 352 352 352 351 351 351 352 351 350 349 348 348 347 346 345 343 342 341 341 340 340 339 339 339 339 338 338 338 338 337 337 336 336 335 336 336 336 336 336 336 336 335 335 335 335 335 335 334 333 332 331 331 330 330 330 330 329 328
353 353 353 354 354 354 355 355 355 355 354 354 354 354 355 355 355 355 355 355 354 354 354 353 353 353 353 352 352 352 352 351 352 352 351 350 349 348 348 347 347 345 344 342 341 341 341 340 339 339 339 338 338 338 338 338 337 337 337 336 336 335 335 336 337 336 336 336 336 336 335 335 335 334 332 331 331 330 330 329 329 330 329 328 328
352 353 353 354 354 354 355 355 355 355 355 355 355 354 355 355 355 355 355 355 355 355 355 354 354 353 353 353 352 352 352 352 352 352 351 350 350 349 348 347 347 345 344 343 343 342 342 341 340 340 339 338 338 338 338 338 338 337 337 337 337 336 335 336 337 337 337 336 336 335 334 334 334 333 332 332 332 330 329 328 329 329 328 328 328
352 353 354 354 354 355 355 355 355 356 356 356 355 355 355 355 355 355 355 355 355 355 355 355 354 354 353 353 352 352 352 352 352 351 351 351 350 350 348 348 347 345 344 344 344 343 342 341 341 340 339 338 337 337 338 338 338 338 337 337 337 337 336 337 338 338 337 337 335 335 334 333 332 333 333 332 332 330 329 328 328 328 328 328 328
352 354 354 354 355 355 355 356 356 356 356 356 356 356 356 356 356 355 355 355 355 355 355 355 355 354 354 353 353 352 352 352 352 351 351 351 350 350 350 348 347 346 346 345 344 344 343 342 341 340 339 339 338 338 339 339 338 339 338 338 338 337 337 338 338 338 337 337 336 335 334 333 332 334 334 332 331 330 329 328 328 328 328 328 328
353 354 354 355 355 355 356 356 356 356 356 356 357 357 356 357 356 356 356 356 355 356 355 355 355 354 354 354 353 353 352 352 352 351 351 351 350 350 350 348 347 347 345 344 344 344 343 342 341 340 339 339 338 337 338 339 339 339 339 338 338 338 337 338 338 339 338 337 335 333 333 333 333 333 332 332 331 329 328 328 328 329 329 329 328
353 354 355 355 356 356 357 357 357 357 357 357 357 357 357 357 357 356 356 356 356 356 355 355 355 354 355 354 353 353 353 352 352 352 351 351 350 350 349 348 348 347 345 344 344 343 343 342 341 340 340 340 339 337 338 339 339 339 339 339 338 338 338 338 339 338 337 335 334 334 334 334 333 332 331 330 330 328 328 328 328 328 328 327 326
353 354 355 356 356 357 357 357 357 357 357 358 358 357 357 358 357 357 357 356 356 356 355 356 355 355 355 354 354 353 353 352 352 352 352 351 350 350 349 349 349 347 344 344 344 343 343 342 341 340 340 340 340 338 339 339 339 339 339 339 338 338 338 338 337 336 335 334 334 335 334 333 332 332 330 329 328 327 327 327 327 326 325 325 324
352 354 355 355 356 357 357 358 358 358 358 358 358 358 358 358 358 357 357 357 356 356 356 355 355 355 355 354 354 354 353 353 353 352 352 351 351 351 350 349 348 346 343 343 342 342 343 342 342 341 341 341 341 340 339 339 339 339 339 338 337 337 336 336 336 335 334 334 334 334 333 332 331 330 329 327 326 326 326 325 324 323 323 323 324
352 353 355 355 356 357 358 358 358 358 358 358 358 358 358 358 358 358 357 357 357 356 356 355 355 355 355 354 354 354 353 353 353 353 352 351 351 351 350 348 346 344 343 342 341 342 342 342 342 342 341 342 341 341 340 340 339 338 339 338 336 336 336 336 335 334 333 333 333 333 332 330 329 328 327 326 326 325 324 323 321 322 322 321 321
352 353 354 355 356 357 358 359 359 359 359 358 359 358 358 358 358 358 358 357 357 357 356 356 355 355 354 354 354 354 354 353 353 353 352 352 352 352 350 347 345 344 343 342 341 341 341 342 342 342 341 342 341 341 340 340 339 338 338 337 336 336 337 336 334 333 333 333 333 331 330 328 327 327 327 327 325 323 321 320 320 321 320 318 316
352 353 353 354 355 356 357 358 359 359 359 359 359 358 358 359 358 358 358 357 357 357 357 356 356 355 354 355 354 354 354 353 353 353 353 352 353 352 350 348 346 345 344 342 342 342 341 341 342 341 341 341 341 340 340 339 338 338 336 336 337 336 335 333 332 332 333 333 332 330 328 327 327 327 326 324 321 318 318 319 320 320 318 317 315
352 352 353 353 354 356 357 357 358 359 359 359 359 359 359 359 358 358 358 357 357 357 357 356 356 355 355 355 354 355 354 354 353 353 353 353 353 353 351 350 348 346 344 343 342 342 342 342 341 341 341 341 340 339 339 338 338 336 336 337 336 333 332 331 332 333 333 331 329 328 327 326 326 324 321 318 316 316 318 319 319 318 317 316 314
353 352 353 353 353 355 356 357 358 358 359 359 359 359 359 359 359 359 358 358 357 357 357 356 356 355 356 355 355 355 355 354 354 354 354 354 354 353 353 352 350 347 345 344 344 344 343 342 341 341 341 340 339 338 338 337 337 336 337 336 333 331 331 332 333 334 332 330 327 327 326 324 322 319 317 316 318 319 319 319 318 317 316 314 312
354 354 353 353 353 354 355 356 357 358 359 359 359 359 359 359 359 359 358 358 358 357 357 356 356 356 355 355 355 355 355 354 354 354 354 354 354 354 352 351 350 348 347 347 347 346 344 343 342 341 341 340 339 338 337 337 337 336 335 332 330 331 332 333 334 333 330 327 326 325 324 321 318 315 316 318 320 320 319 318 316 315 314 313 312
355 355 354 353 353 354 355 355 356 357 358 359 359 360 360 359 359 359 358 358 357 357 357 356 356 356 355 354 354 354 354 354 354 354 355 355 355 354 352 350 349 348 347 347 347 346 344 343 342 341 340 339 338 337 337 337 335 332 330 330 331 333 333 334 334 331 328 326 326 325 322 319 315 314 316 320 321 320 319 318 317 316 315 314 313
357 356 355 355 354 354 354 355 356 357 358 359 359 359 359 360 359 358 359 358 358 358 357 356 356 355 355 354 352 351 351 353 353 354 355 354 354 353 350 348 347 346 346 346 345 344 343 342 341 340 339 338 337 337 337 335 331 330 332 334 335 334 334 334 333 330 328 327 326 323 320 316 315 315 317 318 319 320 319 319 318 317 315 313 311
358 357 356 356 355 355 354 354 355 356 357 357 358 359 359 359 359 359 358 358 358 358 357 357 356 355 354 353 350 348 348 350 352 353 353 352 352 350 346 344 344 343 343 343 343 341 340 340 339 338 337 336 335 334 332 330 332 335 336 335 335 334 334 333 331 329 328 326 323 320 317 316 315 316 316 317 318 319 319 319 319 318 315 311 308
358 357 357 357 357 356 355 354 355 355 356 357 358 359 359 359 359 359 359 359 359 358 358 357 355 354 354 352 348 344 343 345 349 352 352 351 351 347 342 340 341 342 341 341 340 339 338 337 335 335 334 332 331 330 331 334 337 337 334 333 333 333 331 330 329 328 326 323 320 318 317 316 316 316 316 317 318 318 319 318 317 315 311 308 306
356 356 356 356 357 357 357 356 355 355 355 357 357 358 359 359 359 359 359 359 359 358 358 357 356 355 354 350 346 342 341 343 348 352 354 354 352 347 343 341 341 340 340 340 339 337 335 334 333 332 331 330 330 333 336 337 337 335 333 333 332 331 330 329 327 325 323 321 320 318 317 317 317 317 317 317 318 319 318 316 314 311 308 306 306
350 352 352 352 352 353 354 355 355 356 357 356 357 358 358 359 359 359 359 359 359 359 358 357 356 355 353 349 347 346 346 347 350 352 353 353 352 350 347 344 341 340 340 340 339 336 334 333 332 331 331 331 333 336 337 337 336 334 333 333 332 330 329 328 326 324 322 321 319 319 318 318 317 317 317 318 319 319 317 314 311 308 306 306 305
345 344 345 345 345 346 346 346 347 348 351 353 357 358 358 357 357 358 359 358 358 358 359 358 356 355 352 349 347 347 348 350 351 351 350 350 349 348 346 343 340 340 340 339 337 334 333 331 330 331 332 334 335 337 337 336 335 334 333 333 332 330 328 326 325 323 322 321 320 320 319 318 318 318 319 319 318 316 314 310 307 306 305 305 305
341 340 340 341 341 341 340 340 339 339 340 342 347 352 354 354 352 353 356 358 358 358 357 356 355 353 351 349 347 345 345 347 349 349 348 347 346 345 344 341 340 340 339 338 335 333 331 331 330 331 334 335 335 336 336 335 334 333 333 332 330 328 327 325 324 323 323 322 322 321 320 320 320 320 319 317 315 313 310 307 306 306 305 304 304
338 338 337 337 338 338 337 337 337 336 336 335 336 340 344 346 347 347 347 349 353 355 356 355 353 350 349 349 347 345 343 344 346 345 344 344 343 342 341 340 340 339 338 336 334 331 330 331 332 333 334 335 335 335 335 334 332 331 331 329 328 326 325 324 324 323 323 323 323 322 321 320 318 317 315 313 312 310 307 306 306 305 304 304 303
336 338 337 336 335 334 335 336 336 336 335 334 334 335 336 338 341 341 338 336 337 339 343 348 350 347 345 344 345 345 343 343 343 342 341 340 339 339 339 339 338 336 335 334 333 331 331 332 332 334 335 336 335 335 334 332 331 329 328 327 326 325 323 323 322 323 323 323 322 320 318 316 314 313 312 311 310 308 307 306 305 304 303 303 303
337 338 337 336 334 333 334 336 337 336 336 335 335 335 334 334 335 335 335 335 334 330 330 336 342 344 344 342 342 343 342 340 339 338 337 336 336 337 337 335 333 332 332 333 332 332 332 333 333 335 336 335 334 334 332 330 329 327 326 325 323 322 321 321 321 320 320 319 318 315 313 312 312 311 311 310 308 307 306 305 304 303 303 303 303
338 337 337 336 335 335 335 336 337 337 337 336 335 335 334 334 332 330 330 332 332 327 325 328 334 339 343 343 341 338 337 337 336 336 335 335 335 335 334 331 330 330 330 331 332 332 332 333 334 334 335 334 333 333 331 328 327 325 324 322 320 319 319 319 318 317 316 314 313 312 312 311 310 309 308 307 306 305 305 304 303 303 303 303 303
338 338 337 336 335 336 335 335 336 336 336 335 335 335 333 332 331 330 329 330 330 325 321 322 325 327 330 334 336 335 335 335 336 335 335 335 335 335 333 331 329 329 329 330 331 330 330 331 332 332 333 333 332 330 328 325 324 322 320 319 318 318 318 318 316 315 314 312 312 312 311 310 309 308 307 307 306 305 304 304 304 303 303 303 303
338 337 336 336 336 336 336 336 336 336 335 335 335 335 334 332 332 332 331 333 333 330 326 325 324 321 320 323 331 335 336 335 334 333 333 333 334 334 333 331 330 330 330 329 329 329 329 330 330 331 332 332 329 327 325 323 322 320 318 318 318 318 317 316 315 314 313 312 312 311 311 310 309 308 308 307 306 304 304 303 303 303 303 302 302
338 337 336 336 336 337 337 336 336 336 336 335 335 335 334 333 334 335 333 333 334 333 330 326 323 320 321 324 330 334 335 333 331 329 328 329 331 331 332 331 330 330 329 328 328 328 329 329 330 331 331 329 326 324 323 321 319 318 318 317 317 316 315 315 314 313 313 312 312 311 311 310 309 309 308 307 305 304 304 303 303 303 302 302 302
339 338 337 336 337 337 337 337 336 335 335 335 335 334 333 332 333 333 332 332 333 332 330 325 320 319 323 329 333 336 336 335 333 330 327 327 328 330 331 331 330 329 327 327 327 328 329 330 331 331 329 326 323 322 321 319 318 318 317 317 316 315 314 314 313 313 312 312 311 310 310 309 309 308 307 305 304 303 303 303 303 303 302 302 302
340 339 338 338 338 338 337 337 337 336 336 335 335 334 332 332 332 332 331 331 330 329 327 325 322 323 327 332 336 337 337 335 334 332 328 327 329 331 332 331 330 328 327 328 328 329 330 331 331 329 326 323 322 320 319 318 318 317 316 315 315 315 314 313 312 312 311 310 309 309 309 308 307 307 306 304 303 303 303 303 302 301 300 301 302
340 340 340 339 339 338 337 336 336 337 337 337 337 336 334 333 333 332 331 330 329 327 325 323 323 327 330 333 334 335 334 333 331 329 327 328 330 332 331 330 330 329 329 329 330 331 332 332 329 326 322 321 320 319 318 318 317 317 316 315 315 314 313 312 311 310 310 309 309 308 308 307 306 306 305 304 303 303 303 302 300 298 299 301 303
339 340 341 340 340 340 338 337 336 337 337 337 337 337 337 337 336 334 332 330 329 327 325 324 324 326 328 330 331 332 332 330 328 328 327 328 329 330 330 330 330 330 331 331 331 331 332 330 326 322 321 320 319 319 318 317 317 316 315 314 314 313 312 311 310 310 309 308 307 307 306 306 305 304 303 303 303 302 301 299 297 297 299 302 303
338 339 340 340 341 340 340 339 338 337 336 337 336 336 336 337 336 335 334 332 329 327 326 325 325 325 325 327 329 330 330 329 328 328 328 327 327 328 330 330 330 331 331 331 331 331 330 327 323 320 320 320 319 318 318 316 315 315 314 314 313 312 311 310 310 309 308 307 306 306 305 305 304 303 303 303 302 301 300 298 296 297 300 303 304
337 338 339 339 340 340 339 340 339 338 336 336 335 334 334 334 334 332 331 330 328 326 324 324 325 326 325 325 326 328 328 328 327 328 328 327 327 329 330 330 329 330 330 331 331 329 326 324 321 320 319 319 318 317 316 315 314 313 312 312 312 311 310 310 309 308 307 307 306 305 305 304 303 303 302 301 300 299 298 296 295 298 302 304 304
335 336 336 336 337 337 338 338 339 338 337 336 335 334 333 332 331 330 329 328 328 326 324 323 324 325 323 323 324 326 327 327 327 327 328 328 328 329 329 329 328 328 328 329 329 327 324 322 321 320 319 318 317 316 315 313 312 311 310 311 310 310 309 308 308 307 306 306 305 304 304 303 302 301 300 299 298 297 295 295 297 301 303 303 304
334 334 333 334 334 334 335 336 336 335 334 334 334 334 333 332 331 331 330 329 329 328 327 325 325 324 322 322 324 325 326 327 327 328 328 328 328 328 328 328 328 327 327 328 328 327 325 324 321 319 318 317 316 314 313 311 310 309 309 309 309 308 308 307 307 306 305 304 304 303 302 301 300 299 298 297 296 295 294 296 299 302 303 303 304
332 331 331 331 331 331 331 332 332 331 331 332 334 333 332 331 331 331 330 329 329 328 327 326 325 324 323 323 324 325 327 328 328 328 328 328 328 328 327 326 326 326 326 326 326 326 325 323 321 319 318 317 314 312 311 310 309 309 309 308 308 308 306 305 304 303 303 303 302 301 300 299 299 299 297 296 295 295 295 297 300 302 303 304 303
330 329 329 329 329 330 330 329 330 330 330 331 332 332 331 330 330 329 329 329 329 328 326 325 325 325 324 323 325 327 328 329 329 328 328 328 328 327 326 325 324 324 324 324 324 323 322 321 319 319 318 316 313 311 310 309 309 309 308 308 307 304 302 300 299 300 300 300 300 299 299 300 300 299 297 296 295 294 295 297 300 303 303 303 301
327 327 327 327 328 328 328 328 329 330 330 330 330 330 329 329 328 328 327 327 327 326 324 324 325 325 324 324 326 327 328 328 328 328 328 328 328 327 326 325 323 322 323 324 323 321 320 319 319 318 317 314 312 311 310 309 309 308 307 306 304 303 302 302 300 299 299 299 299 300 300 300 299 298 296 295 295 294 295 298 301 303 303 301 300
324 324 324 325 325 326 326 326 327 327 328 328 328 328 328 327 327 327 326 325 323 322 321 322 323 323 323 324 327 327 327 327 327 327 327 327 326 326 326 325 324 322 322 323 322 321 320 319 318 317 316 314 312 311 310 310 309 308 307 306 305 305 305 305 303 301 300 300 300 300 300 299 298 296 295 294 294 295 298 300 302 302 301 300 300
Wind_Speed
42 43 42 42 40 40 40 41 41 40 40 39 39 38 38 38 38 37 35 35 35 34 35 35 35 34 34 33 33 34 34 33 32 32 32 33 33 33 32 30 29 29 27 27 26 26 25 24 23 21 20 19 17 16 15 14 13 12 11 11 12 11 11 11 9 8 8 9 10 10 9 7 6 5 4 3 2 3 5 6 8 10 11 13 14
43 43 41 41 41 41 40 40 40 40 40 39 39 38 38 37 37 36 35 35 35 35 36 36 36 35 34 34 34 34 35 34 34 33 33 33 33 33 32 31 31 30 29 29 28 27 26 25 24 23 21 20 19 17 16 16 15 14 14 13 14 13 12 12 11 9 9 9 9 9 8 6 6 5 5 5 4 6 7 8 10 12 13 14 15
43 42 41 41 42 41 39 39 40 40 40 40 39 38 38 37 36 36 35 35 35 36 36 37 36 36 35 35 35 35 36 36 35 35 34 34 33 33 33 32 32 31 31 31 30 28 27 26 26 24 22 21 21 19 18 17 17 16 15 15 15 14 14 13 12 11 11 9 8 8 7 6 6 6 6 7 7 8 9 10 12 13 14 15 16
41 40 41 41 40 39 39 39 39 40 40 40 39 38 37 37 36 36 36 35 35 36 37 37 37 37 36 36 36 36 36 37 36 36 36 35 34 33 32 32 33 33 32 32 31 29 28 28 27 26 24 23 22 20 19 19 19 18 17 16 16 15 15 15 14 14 13 11 9 8 8 8 8 8 9 10 10 11 12 13 14 14 15 15 15
39 40 41 39 38 39 39 39 39 40 41 40 39 39 38 37 36 36 36 35 36 36 36 37 37 37 37 37 37 37 37 37 37 37 36 36 35 34 33 33 33 33 33 33 32 31 30 30 29 27 26 25 24 23 22 21 20 20 19 18 17 16 17 17 17 16 16 15 13 12 11 11 11 11 11 11 12 13 14 15 15 15 16 15 13
39 39 39 38 38 40 40 41 41 41 41 40 39 39 38 38 37 36 36 37 36 36 37 38 38 38 39 39 38 38 38 38 38 37 37 36 35 34 33 33 34 34 34 34 33 32 32 31 30 29 28 27 27 26 25 23 22 22 21 20 18 18 18 19 18 17 18 18 17 16 15 14 14 14 12 12 14 15 16 17 17 15 16 16 15
39 39 39 39 39 40 42 43 42 41 41 40 40 39 39 39 38 37 37 37 38 37 38 38 39 39 40 39 40 39 39 38 38 38 38 37 36 35 34 33 34 34 34 34 34 33 32 32 31 30 30 30 29 28 27 26 25 24 23 22 20 19 20 20 18 18 18 18 18 18 17 16 16 16 15 13 15 17 18 18 18 17 17 18 18
38 39 39 38 40 42 43 43 41 41 41 41 41 40 39 39 38 38 38 38 39 40 39 39 39 39 39 40 40 39 39 39 38 38 38 37 36 35 34 34 34 34 34 34 33 33 32 32 32 31 31 31 31 30 29 28 27 26 25 23 22 22 22 21 19 18 17 18 18 18 17 16 16 16 15 15 16 18 16 15 17 19 19 18 18
39 39 38 40 42 43 42 40 40 40 40 40 41 40 39 39 39 39 39 40 40 40 39 39 39 39 39 40 40 39 39 40 40 39 39 38 37 36 35 34 34 34 34 33 32 32 32 32 33 33 33 32 31 31 29 28 28 27 26 25 24 24 23 22 20 18 18 19 19 18 15 15 15 16 17 17 16 15 11 12 16 19 20 19 18
39 38 39 42 43 41 40 39 39 39 40 41 41 40 39 39 39 40 41 41 40 39 39 39 39 39 39 39 39 39 40 41 41 41 40 39 38 36 35 34 34 34 33 31 30 31 32 33 33 33 32 31 30 30 29 28 28 28 27 25 25 25 25 23 21 20 19 19 19 16 14 15 17 16 15 13 9 7 8 12 17 19 19 18 17
38 39 42 44 41 39 39 39 39 40 41 42 41 41 40 40 41 42 42 41 40 39 39 39 40 40 40 40 40 40 41 42 42 42 42 40 38 36 35 34 34 34 31 29 29 31 32 32 33 33 31 29 27 27 28 29 29 28 27 25 25 25 25 24 23 21 20 20 18 15 14 16 15 11 9 8 6 8 12 15 16 18 17 15 13
38 41 43 41 38 39 39 39 39 40 42 42 42 41 41 42 42 42 41 41 40 39 40 41 41 40 40 40 41 41 42 42 42 42 42 41 39 37 35 34 34 32 30 30 30 31 32 32 33 32 29 25 23 25 28 29 29 28 27 25 24 24 24 24 23 21 20 19 15 11 12 14 13 11 12 12 12 13 15 15 14 15 16 14 14
38 39 39 37 38 40 40 39 40 41 42 42 41 41 41 42 43 42 42 41 40 40 41 41 41 41 41 41 41 41 42 42 43 43 42 41 40 37 35 35 34 32 31 31 31 33 35 33 31 28 24 21 20 24 28 30 29 28 26 24 24 24 24 24 23 21 19 16 12 10 15 18 18 18 19 17 14 13 14 14 13 14 14 15 16
38 38 37 38 39 39 39 39 40 40 40 40 39 40 41 42 42 42 41 40 40 41 42 42 41 41 42 41 40 40 42 43 44 44 43 41 39 38 37 36 34 33 33 33 34 36 36 32 28 25 21 20 19 22 27 31 30 28 26 25 24 25 25 25 24 21 19 17 15 15 19 21 20 20 20 17 15 14 14 14 13 13 14 14 15
36 35 35 36 37 37 38 39 39 38 37 37 38 39 40 40 40 40 39 39 40 41 41 42 42 42 42 41 40 40 42 44 43 43 43 41 38 37 38 37 35 35 34 33 34 36 33 30 28 24 22 22 20 20 25 30 30 27 26 25 24 25 25 24 23 21 19 18 17 16 17 18 18 18 18 16 15 15 13 13 12 12 12 12 12
33 33 33 35 36 37 38 37 35 35 35 36 37 38 39 39 39 38 37 37 38 39 40 40 41 41 40 40 40 41 42 42 42 42 42 39 37 37 38 38 38 36 33 31 33 32 29 29 27 24 25 25 21 20 23 27 28 27 25 24 23 23 23 22 20 18 17 16 14 13 14 15 15 16 15 14 14 13 11 11 10 9 9 9 10
33 34 34 36 37 37 37 36 35 35 35 36 38 39 38 38 37 37 36 35 36 36 37 37 38 39 39 40 41 41 40 40 41 42 40 38 37 37 38 39 40 37 32 31 31 29 27 28 26 24 27 26 21 21 22 24 25 26 24 22 20 19 19 18 16 15 14 13 11 11 13 12 11 12 12 11 11 9 8 9 9 8 8 7 7
33 34 35 36 37 37 37 37 36 36 37 39 40 39 39 38 37 37 36 35 35 35 35 35 36 37 39 41 42 41 39 40 41 41 39 38 38 38 39 40 39 36 31 28 29 29 28 28 26 26 27 26 22 21 21 22 24 25 23 20 18 18 18 17 15 14 12 10 10 10 11 10 9 10 10 9 8 8 9 11 10 9 9 8 7
34 36 37 37 36 36 37 37 37 36 37 39 39 38 38 38 37 37 37 36 35 34 34 34 35 36 38 40 41 40 39 39 40 39 38 38 38 39 39 39 36 33 29 25 26 28 28 27 26 26 27 25 22 20 20 21 23 24 22 20 19 19 18 17 16 14 12 9 10 11 10 9 9 10 10 9 9 10 12 12 11 10 10 9 7
35 35 34 32 33 35 36 38 38 39 40 41 40 39 38 36 36 38 38 37 35 35 35 35 35 36 37 37 38 40 39 38 38 38 37 37 38 39 39 37 35 33 30 27 26 26 27 27 27 26 25 23 21 19 18 19 21 23 22 21 21 19 18 17 15 13 10 8 9 10 10 8 8 9 9 10 12 12 12 11 9 8 8 6 6
27 27 26 28 32 35 37 39 41 43 44 43 40 39 39 39 40 41 40 38 37 36 36 37 36 36 36 35 36 38 39 38 37 36 36 37 38 39 39 38 36 34 31 29 27 26 26 27 27 25 23 21 18 16 16 17 19 21 22 21 20 19 17 15 14 12 9 8 10 10 9 8 8 9 10 12 12 11 10 9 8 7 6 6 6
25 26 28 30 33 35 37 39 41 42 41 40 38 39 41 41 41 41 40 39 39 39 38 37 36 34 34 35 36 36 37 37 37 36 35 37 38 39 40 40 38 34 30 28 27 26 26 27 26 24 22 20 17 16 16 16 17 19 19 19 19 17 14 13 13 12 11 11 11 10 9 9 9 10 11 11 10 9 9 9 8 7 6 7 7
26 27 29 32 33 35 38 39 39 38 37 38 39 39 39 39 40 40 39 38 38 37 37 36 34 32 32 33 35 35 35 36 37 36 36 36 37 39 41 40 37 34 30 28 28 28 27 26 25 22 20 18 16 16 16 16 16 17 18 18 17 14 12 13 14 13 13 12 11 11 10 10 10 10 10 10 10 9 10 9 8 7 6 7 8
23 25 29 31 33 35 36 37 38 38 37 38 38 37 37 38 38 39 39 38 36 35 35 34 32 31 31 31 33 34 34 34 36 37 37 37 38 39 40 40 37 34 31 29 28 28 27 25 22 20 17 15 15 16 16 15 15 16 17 17 15 13 13 15 15 15 15 14 13 12 12 11 10 11 12 12 11 10 10 9 8 7 6 8 10
19 24 27 29 31 33 33 34 37 39 40 41 40 40 39 38 36 37 37 35 34 32 31 32 31 30 30 30 31 34 35 35 35 36 37 38 39 38 38 39 37 34 31 29 27 26 24 21 19 17 16 15 15 16 16 16 16 16 15 14 14 14 15 16 16 16 16 14 13 12 11 10 10 11 12 11 10 9 9 8 7 7 7 10 12
17 23 25 27 30 31 31 32 36 38 39 39 40 40 39 36 35 34 33 31 31 29 29 30 30 29 28 29 30 32 34 35 36 37 37 38 38 37 36 37 35 32 30 27 25 23 20 18 17 16 17 17 17 17 17 17 16 15 13 13 14 15 16 16 17 16 15 13 11 11 10 11 11 11 10 10 9 8 8 8 8 9 9 11 13
12 18 22 25 26 27 29 31 32 33 34 35 35 35 34 34 33 32 31 31 31 31 30 30 30 29 28 29 29 31 34 36 37 38 38 37 36 36 36 35 32 29 27 25 23 21 19 17 17 17 17 17 17 18 17 17 16 14 13 14 15 15 15 15 15 13 12 10 10 10 11 12 11 10 9 9 8 7 8 8 9 10 11 12 13
8 11 14 18 20 22 25 28 28 29 31 33 35 35 35 36 35 36 38 39 37 33 31 30 29 30 30 29 27 26 29 34 39 41 41 39 37 37 37 35 31 29 28 26 23 21 20 20 20 19 19 19 18 18 17 16 15 15 15 15 15 15 15 14 13 12 11 10 10 11 12 12 11 10 9 9 8 8 8 9 9 10 11 11 12
9 10 10 11 13 15 20 24 27 28 29 31 33 36 38 39 39 41 44 47 45 43 39 36 35 34 33 32 31 28 27 33 41 45 44 41 40 40 39 37 35 33 30 28 26 25 24 24 23 22 20 20 19 18 18 17 16 16 16 16 16 15 15 14 13 12 11 11 11 11 11 10 10 10 10 9 9 8 9 9 9 10 11 11 11
10 10 10 11 11 11 12 15 19 23 26 28 32 35 37 39 41 41 43 47 51 52 50 48 47 43 39 38 38 37 38 40 42 43 43 43 42 41 40 40 38 34 31 29 28 28 27 25 24 23 22 21 21 21 20 19 19 18 17 16 15 14 14 13 12 11 11 11 11 10 10 10 11 10 10 10 9 9 9 9 10 10 11 10 9
11 10 10 10 11 11 11 12 13 15 17 21 24 28 31 36 40 42 43 45 50 54 54 53 52 49 46 43 41 38 38 41 42 41 41 42 42 41 40 39 37 34 32 30 29 28 28 26 24 24 23 23 22 22 21 21 21 20 18 17 15 14 14 13 13 12 11 11 11 11 11 11 11 10 10 10 9 9 9 10 10 10 9 7 7
10 10 10 10 10 11 12 14 16 17 18 19 19 20 22 27 32 38 43 45 49 54 53 49 48 49 48 47 43 37 34 38 42 44 43 42 42 41 40 38 36 34 32 30 28 28 27 26 25 25 24 23 22 22 22 21 21 20 19 17 16 15 15 14 12 12 12 12 11 11 11 10 9 9 9 8 8 9 9 9 8 7 7 6 6
9 10 10 10 10 11 13 14 15 16 16 17 18 19 18 19 21 26 32 36 42 51 54 52 49 47 47 46 44 40 38 40 42 42 41 40 40 40 38 36 34 33 31 30 29 27 27 26 26 26 26 24 23 22 22 21 19 18 17 16 15 15 14 12 11 11 11 10 10 10 10 9 9 9 9 8 8 9 9 9 8 6 6 6 7
9 9 9 9 9 10 11 12 12 13 13 13 14 15 16 17 18 19 20 21 22 28 39 48 52 48 44 43 43 42 44 46 43 38 35 35 37 38 37 35 33 31 30 30 30 28 27 26 26 26 26 25 24 23 21 20 18 16 16 15 14 13 12 11 10 10 9 9 9 9 9 9 9 8 8 9 9 10 10 8 7 6 5 6 8
9 10 11 10 10 9 10 10 11 12 13 13 12 12 13 16 16 13 15 19 21 25 30 38 49 51 44 40 42 46 47 46 43 39 36 35 37 38 37 36 35 32 29 28 29 29 28 27 26 27 27 25 24 23 21 19 18 17 16 16 14 13 12 11 10 9 8 8 9 9 8 8 8 8 9 10 11 11 9 8 7 6 6 7 8
9 9 10 10 10 9 8 9 11 12 12 12 11 13 17 20 20 18 15 10 7 25 39 40 41 46 48 46 46 48 47 45 44 43 40 39 38 37 37 37 35 30 27 26 27 27 27 27 27 27 26 25 23 21 20 19 18 17 16 15 15 14 13 11 10 10 10 10 9 9 9 9 9 9 10 10 10 9 9 8 6 6 6 7 8
8 7 7 7 8 9 9 10 12 12 12 13 13 15 21 24 23 22 24 24 18 10 33 47 46 42 43 46 47 48 46 44 42 41 38 36 35 35 37 38 35 30 27 26 26 26 26 26 27 26 25 23 22 21 20 19 17 17 16 16 15 14 12 11 11 11 11 10 10 9 9 8 9 9 10 10 10 10 10 8 7 6 7 7 8
6 6 6 6 7 8 9 10 10 9 9 12 16 19 20 24 26 24 20 22 26 23 13 34 46 42 37 39 44 47 46 43 39 37 35 34 32 32 34 36 35 32 29 27 27 26 26 26 26 25 24 23 22 22 20 19 19 19 18 17 15 14 13 13 13 12 11 10 9 8 8 8 9 11 11 12 12 12 11 9 8 8 8 8 8
5 4 4 5 6 8 9 9 9 9 10 11 16 20 19 20 24 22 17 19 25 27 24 24 34 36 35 38 41 44 44 41 38 36 35 32 30 30 31 32 30 29 28 27 27 27 26 26 25 24 23 24 23 22 21 20 20 20 18 17 16 16 15 15 14 12 11 10 9 9 9 10 12 14 14 15 15 14 12 10 9 9 9 9 8
3 2 3 5 6 7 8 9 9 9 11 11 12 16 17 16 18 17 14 15 19 19 19 22 25 25 31 36 38 41 43 40 37 35 33 29 27 27 28 28 28 28 28 28 27 27 26 25 25 24 24 25 23 22 22 21 21 19 18 18 18 17 16 15 13 12 11 10 10 10 11 12 14 15 16 16 16 14 12 11 10 10 10 9 8
2 3 3 4 5 5 6 9 10 9 10 11 11 12 13 14 15 16 15 16 17 17 18 20 21 22 26 29 32 36 39 38 36 33 30 28 27 26 25 25 27 28 28 28 28 26 25 24 25 25 26 25 23 23 22 21 20 19 19 18 17 16 15 14 13 12 11 11 11 12 13 14 15 16 18 18 16 14 12 11 10 11 10 9 8
5 6 5 3 4 5 5 6 8 9 9 11 12 11 11 12 14 14 14 15 16 16 17 18 19 22 24 25 26 30 33 33 32 30 26 25 26 25 24 25 27 27 28 29 28 27 25 25 26 27 26 25 24 23 22 21 20 19 18 17 16 15 14 14 13 13 12 12 13 14 14 15 16 17 18 17 15 13 11 11 11 11 10 9 7
6 7 6 4 3 4 4 4 5 7 8 9 9 10 10 11 11 12 13 13 14 14 15 16 16 19 21 20 21 24 28 28 27 25 24 23 24 24 25 25 25 26 27 28 28 28 26 26 27 27 26 25 24 22 20 18 18 17 16 15 14 14 14 14 14 13 13 13 14 14 15 16 17 17 17 15 13 12 11 12 12 12 11 9 7
6 6 6 5 4 3 2 2 2 2 4 6 7 8 9 10 9 9 10 11 11 11 13 15 16 18 19 18 17 21 24 25 24 24 24 22 22 23 23 23 23 24 25 27 27 27 26 26 27 27 26 24 22 20 17 15 14 13 12 13 13 14 14 14 13 12 12 13 14 14 15 16 17 17 16 14 13 12 13 13 14 13 11 8 6
6 6 6 5 4 3 2 1 1 1 2 4 6 7 7 8 9 9 9 10 10 10 12 14 16 18 18 17 17 19 20 21 23 24 24 22 21 22 22 21 21 22 24 25 26 26 25 26 28 27 25 24 22 18 16 14 12 10 9 10 11 12 12 11 10 10 10 11 13 14 16 17 16 16 15 14 14 14 14 15 14 12 11 8 5
6 6 6 5 4 2 1 2 3 4 4 5 6 7 7 8 9 9 9 10 11 11 12 14 16 16 15 15 16 17 19 20 21 23 23 23 22 21 21 20 21 22 23 24 26 26 25 26 27 26 25 23 21 18 16 14 12 10 9 8 7 8 7 7 7 8 9 11 13 14 15 15 15 15 15 15 15 15 15 14 13 12 10 7 5
8 7 6 6 5 3 2 1 2 1 2 3 5 7 9 10 11 12 12 12 12 13 14 15 16 15 14 14 15 17 19 21 21 22 23 23 22 21 21 20 21 21 22 23 25 25 25 25 26 25 24 22 20 19 17 15 12 10 9 8 8 8 7 7 7 7 8 10 11 12 12 13 14 15 15 15 15 14 14 13 13 12 9 7 5
10 10 9 9 9 8 6 5 5 4 4 3 3 5 8 10 12 13 14 13 14 14 15 15 16 16 16 16 17 17 17 19 20 20 21 22 22 21 21 20 20 21 21 22 23 23 24 25 26 25 23 22 21 20 18 14 11 10 9 9 9 8 6 6 6 6 7 8 9 10 11 12 13 14 14 14 13 13 13 13 13 11 8 7 6
13 13 13 13 13 12 10 9 8 7 5 3 1 1 3 5 7 9 11 12 13 14 14 14 16 17 17 17 18 17 17 17 18 19 21 23 23 22 21 20 19 19 20 21 22 23 24 26 26 24 22 22 21 20 17 14 12 11 10 9 8 6 5 4 5 6 7 8 9 9 11 12 13 13 13 12 12 12 12 13 12 10 8 7 5
17 16 15 14 14 13 12 11 10 9 7 6 5 4 1 2 4 6 8 9 9 11 12 12 13 17 18 19 19 18 17 17 19 20 20 21 22 22 21 20 19 19 18 19 21 24 26 27 26 24 23 22 22 20 18 15 14 13 11 9 8 8 8 8 7 7 7 7 7 8 11 13 13 12 11 11 10 10 10 11 10 9 8 7 4
21 20 19 18 17 15 14 14 12 9 7 7 6 3 1 1 3 4 5 4 4 7 8 9 10 14 17 19 20 20 19 18 19 18 18 19 19 20 20 21 21 20 19 20 23 26 27 27 26 24 23 23 22 20 18 16 15 15 14 13 12 11 10 9 8 8 7 6 7 8 10 12 11 10 9 9 8 8 8 8 8 8 7 6 4
Wind_Direction
209 210 210 211 211 211 212 213 213 214 215 216 217 218 219 220 221 223 223 224 224 224 226 230 232 233 233 234 235 235 236 238 240 239 238 238 239 240 241 241 243 245 246 245 243 243 244 244 243 240 237 234 233 234 235 236 241 242 240 236 229 230 233 226 226 242 245 237 228 223 231 247 253 250 251 252 255 259 267 288 303 309 309 306 304
209 210 210 210 211 211 211 212 213 213 214 215 216 217 219 220 220 221 221 223 223 223 225 228 230 232 232 233 234 234 235 237 239 238 237 238 237 238 240 240 242 243 244 244 243 242 243 243 243 241 238 237 237 237 236 235 237 238 236 236 234 233 234 234 235 238 242 242 236 232 234 247 260 263 259 256 260 268 280 296 306 310 312 311 308
209 209 209 210 211 210 210 211 211 212 213 214 215 216 218 219 219 220 220 222 223 224 225 226 228 230 231 232 233 233 234 235 237 238 238 238 237 237 239 239 241 242 243 243 243 242 242 242 243 242 239 239 240 239 236 235 236 237 237 236 236 235 235 238 240 242 248 252 247 242 245 255 267 270 267 264 270 280 289 297 301 305 310 311 308
208 207 208 210 210 209 210 210 210 211 212 214 215 215 217 218 219 219 220 221 222 223 225 225 226 228 228 230 231 231 232 233 234 236 237 238 238 238 239 240 241 243 243 244 243 242 241 242 243 243 240 240 241 239 235 234 234 236 236 234 234 236 236 238 243 249 254 257 254 254 259 268 274 276 275 275 278 285 291 294 296 302 308 308 305
206 206 208 208 208 208 209 209 210 210 211 213 214 214 215 216 218 218 219 220 221 222 223 224 225 225 227 229 229 230 231 232 232 234 236 238 238 238 240 241 243 244 244 244 244 243 243 243 244 243 241 239 239 238 235 233 234 235 235 234 233 235 235 236 242 248 252 255 258 263 267 271 276 278 277 280 285 289 290 289 290 298 306 305 300
205 205 206 206 207 208 208 209 210 210 211 212 213 214 215 215 216 217 218 219 220 221 222 223 224 225 227 228 229 230 230 230 231 233 235 237 237 238 239 240 243 244 245 244 244 244 244 245 245 243 241 240 238 237 236 234 234 234 235 235 233 232 233 236 241 244 248 253 257 262 266 271 275 277 278 281 286 289 287 286 287 295 306 308 304
203 204 205 205 206 208 208 209 209 209 210 211 212 213 214 214 215 216 218 218 219 220 222 223 224 225 227 228 229 229 229 229 230 232 234 235 235 236 238 239 241 243 244 245 244 245 246 246 246 244 242 241 239 237 236 235 235 235 236 237 234 231 231 235 241 243 245 249 252 256 261 266 270 273 278 283 283 283 282 284 291 300 309 311 308
202 203 204 205 207 209 209 209 209 209 210 210 212 213 213 214 214 216 217 218 219 221 221 222 224 225 226 228 228 228 228 228 229 229 231 232 232 234 236 238 240 241 243 245 244 245 247 248 247 246 244 243 241 239 238 237 236 235 237 236 234 231 230 234 239 242 245 248 251 256 259 262 266 271 276 277 275 276 279 286 293 303 310 309 306
201 202 202 205 209 209 209 208 208 209 209 210 211 211 211 212 213 215 217 218 219 220 221 222 223 224 225 227 227 227 227 227 228 229 229 229 229 231 234 236 238 240 241 243 243 246 248 248 248 248 247 245 243 242 241 241 239 238 237 236 233 231 231 233 235 237 242 246 249 255 259 261 265 267 270 271 270 276 292 301 296 301 305 302 301
200 200 203 207 209 208 207 207 207 207 208 209 210 210 210 211 212 214 216 217 218 219 219 221 223 223 224 224 225 225 226 227 228 230 230 230 228 229 232 234 236 238 239 239 242 246 248 249 250 249 248 246 245 243 242 243 243 242 242 240 237 233 231 231 233 235 238 241 246 251 254 260 267 270 271 274 275 282 300 300 294 295 297 295 297
199 200 205 208 207 206 206 206 206 206 207 209 209 209 209 210 211 213 215 216 217 217 217 219 221 222 223 223 224 224 225 227 229 230 231 230 229 229 230 232 235 237 236 236 241 246 248 250 250 249 246 244 245 247 246 245 244 244 244 244 242 241 236 232 233 235 236 240 246 249 250 258 270 275 268 263 267 279 287 288 286 286 286 287 291
200 203 207 206 204 204 205 204 205 206 207 208 208 208 208 209 211 212 213 214 214 215 216 218 220 221 221 223 224 224 225 228 228 230 231 230 229 228 229 232 235 234 234 236 240 244 247 248 249 249 243 237 246 256 252 246 245 244 244 244 244 244 242 240 240 240 241 243 243 249 261 266 270 271 266 263 269 277 277 274 275 278 278 278 279
202 205 206 204 203 204 204 203 205 206 207 207 207 207 207 209 210 211 212 213 213 214 215 217 219 220 220 222 223 224 226 228 228 229 229 229 228 227 227 232 233 231 233 236 237 241 242 242 245 247 239 233 252 265 257 249 247 245 244 242 242 243 243 243 244 247 250 244 234 252 274 270 265 268 270 269 269 268 263 264 273 278 277 275 277
203 205 205 203 204 204 203 204 205 206 207 206 206 207 208 210 211 211 212 212 212 213 215 216 217 219 220 221 222 224 226 227 228 228 228 228 227 225 227 230 230 231 233 233 234 238 238 237 243 245 235 231 248 262 257 250 247 244 242 240 240 242 241 240 242 247 249 242 242 263 272 264 262 268 270 267 265 263 265 272 277 275 274 276 279
203 205 204 204 204 203 203 205 206 206 205 205 206 208 210 211 211 212 212 212 213 214 215 216 217 218 219 220 221 224 226 227 227 227 227 226 224 224 226 227 228 231 231 230 233 237 237 239 244 241 232 232 246 259 255 249 245 242 240 240 240 242 242 242 244 246 244 245 258 273 269 258 261 268 267 266 266 269 273 275 274 273 277 279 278
203 204 204 204 204 203 203 204 204 204 204 204 207 210 211 212 212 212 213 214 215 216 217 217 218 218 219 219 220 223 226 226 226 226 226 222 219 221 223 224 228 230 227 227 233 236 237 240 240 237 231 232 248 262 253 243 243 242 238 238 240 240 240 241 242 244 246 254 266 270 259 255 261 266 266 267 266 268 270 268 269 270 270 270 273
202 204 205 205 204 203 203 202 202 203 202 204 208 210 211 212 212 212 213 215 217 218 219 220 220 219 219 219 220 223 225 225 225 226 223 218 215 217 219 223 228 229 225 226 231 233 237 239 238 238 233 232 250 262 246 236 240 240 235 232 232 232 232 232 235 241 250 260 266 260 254 254 254 255 261 264 259 254 249 254 265 264 255 256 269
204 205 206 206 204 203 202 202 202 202 202 205 208 209 210 211 212 212 213 215 217 219 221 223 223 222 221 221 221 222 224 225 225 224 220 215 213 216 218 221 226 227 223 224 229 232 237 240 240 239 234 235 251 254 237 231 235 234 232 226 218 218 222 224 233 243 248 254 255 252 250 250 246 242 242 241 240 243 250 261 270 266 258 257 257
206 206 207 206 203 202 202 203 203 203 205 208 210 210 210 210 211 211 213 215 217 219 221 223 225 225 224 224 224 223 223 225 225 222 218 214 214 216 218 218 221 223 220 218 224 230 234 236 236 236 235 237 245 244 233 231 231 231 230 219 207 212 221 229 240 245 241 240 241 238 239 239 234 226 222 228 242 255 263 267 268 262 254 251 250
209 209 209 205 202 203 203 203 203 204 207 209 210 210 210 210 209 210 212 214 215 217 219 221 224 226 226 226 226 225 224 225 225 221 216 213 214 215 215 215 216 218 218 217 219 222 227 231 232 233 234 234 236 236 234 233 231 230 227 215 209 218 228 233 238 234 227 231 235 235 236 235 227 224 233 250 259 261 262 260 254 246 237 239 255
213 211 209 205 205 205 205 205 205 207 209 210 209 208 209 209 209 209 209 210 211 213 216 218 221 224 225 226 227 227 226 225 224 220 215 215 216 215 214 215 216 216 215 215 216 218 222 226 229 229 226 224 225 227 230 233 230 227 226 222 221 228 231 228 222 215 213 220 224 227 229 228 231 239 250 258 257 254 250 241 229 225 228 248 266
213 211 209 208 207 207 207 208 209 210 211 210 208 208 209 209 209 209 208 208 207 209 212 214 217 220 222 223 225 227 227 226 224 220 215 216 217 216 216 218 218 214 211 210 212 217 221 224 225 223 217 216 220 222 224 227 225 224 226 225 224 229 229 219 211 209 208 209 211 215 217 222 235 244 246 245 240 232 223 214 212 222 242 266 273
214 211 210 209 210 210 210 210 210 211 212 211 210 210 210 208 209 209 208 207 207 207 209 209 211 214 217 219 221 224 225 225 223 220 217 217 219 218 218 220 219 213 209 210 213 216 220 222 222 219 218 219 219 215 216 220 220 219 219 218 221 225 217 205 204 206 203 202 203 207 213 224 233 231 225 221 216 207 201 201 212 233 254 275 284
219 214 213 212 213 213 213 212 211 212 212 212 212 213 212 209 209 210 209 208 207 207 206 205 206 209 211 212 214 217 218 218 219 220 218 218 220 219 217 217 218 215 211 213 217 218 218 219 218 215 214 213 208 205 208 211 210 209 212 216 220 216 203 201 203 200 197 196 198 205 216 223 220 210 205 206 203 199 198 205 221 244 265 284 294
225 219 217 217 217 217 216 215 214 213 213 211 211 213 212 209 209 210 210 210 209 208 205 202 203 207 208 206 207 207 207 208 211 215 218 219 219 218 215 214 214 213 210 211 216 218 216 214 210 206 202 199 198 199 200 201 202 206 211 216 214 208 203 202 198 194 193 196 201 211 218 213 202 195 196 200 201 201 208 221 237 256 274 288 294
228 224 222 222 221 220 219 218 218 218 216 214 214 215 213 209 208 209 209 210 213 213 207 202 202 204 205 204 203 200 197 198 202 206 211 214 215 213 209 208 208 207 206 208 210 210 207 202 196 193 193 193 193 192 192 195 199 203 207 209 208 205 202 198 193 193 197 202 209 216 212 199 192 191 194 203 209 214 226 242 256 268 279 288 292
242 232 228 227 226 223 222 222 223 222 220 218 219 219 217 213 211 209 206 207 211 213 210 205 201 199 199 200 199 194 189 189 193 199 202 204 206 204 199 197 197 196 196 198 197 193 189 184 181 181 182 183 184 186 189 192 195 197 199 198 195 193 192 193 195 198 203 208 211 211 204 197 194 195 201 214 222 226 235 248 262 274 282 286 287
291 263 249 243 239 234 231 230 229 227 224 221 219 218 216 213 212 211 209 207 206 206 208 208 204 199 196 192 188 184 184 186 189 193 195 194 193 192 189 186 185 186 186 185 181 179 176 171 170 172 175 176 178 181 184 187 189 191 191 186 182 184 187 192 198 203 208 211 211 207 203 202 203 205 213 225 231 233 238 246 257 268 274 276 279
323 308 294 281 270 260 251 243 237 234 231 227 224 223 220 216 214 215 215 213 209 205 204 205 205 202 195 188 182 178 182 190 194 195 193 190 186 184 182 181 182 181 181 179 172 168 167 166 166 171 175 178 178 178 179 182 184 185 184 183 184 187 190 195 204 210 213 216 215 212 209 212 217 219 223 233 239 237 237 242 249 257 263 268 274
339 329 326 324 318 310 292 273 260 250 243 237 232 230 227 224 221 220 220 218 215 211 208 206 204 200 192 188 188 188 190 194 195 194 189 184 181 180 180 181 180 177 176 176 170 165 166 167 168 173 177 178 178 179 180 183 184 183 185 189 192 193 196 205 214 219 222 225 225 221 218 223 228 230 235 242 241 234 232 236 242 249 258 265 273
357 359 357 351 346 344 341 336 325 306 285 268 253 241 234 230 227 226 225 222 217 213 212 210 204 197 191 186 186 190 195 194 191 187 182 177 175 177 177 176 174 172 172 171 167 165 167 167 167 173 177 177 179 183 185 186 187 188 190 194 196 200 207 215 221 225 229 232 230 227 226 229 235 238 241 241 236 230 229 231 239 250 258 265 276
357 1 2 1 1 1 1 360 357 350 339 323 304 280 255 239 231 228 226 224 219 213 210 206 201 195 190 184 181 183 187 186 181 177 175 173 173 173 171 169 167 168 170 170 166 166 169 169 168 172 175 177 181 186 189 190 191 192 193 195 199 206 214 220 222 224 226 226 227 227 228 230 232 231 229 230 230 228 228 234 247 257 260 267 281
10 5 3 4 8 12 15 14 10 3 355 345 333 316 287 262 250 237 225 219 216 211 204 197 192 189 183 182 184 182 174 169 169 169 169 170 169 166 162 162 163 166 170 170 165 164 170 173 173 174 177 180 184 189 192 194 193 191 192 197 203 210 215 217 216 216 217 220 223 223 221 218 213 211 215 222 227 230 236 246 252 250 251 270 290
30 20 15 14 17 24 30 30 24 12 358 348 342 328 304 283 271 252 225 205 197 194 189 182 178 176 174 176 178 173 162 159 161 163 164 166 165 159 154 155 160 167 173 172 167 165 170 174 175 177 181 184 188 191 193 193 191 189 193 201 206 208 207 203 201 203 205 207 208 206 204 205 204 208 217 224 231 238 243 242 235 235 256 282 296
20 14 13 13 17 26 33 31 25 13 0 357 3 5 351 330 311 280 242 217 189 159 151 159 164 164 164 166 164 158 155 155 155 154 157 162 160 154 149 151 158 166 171 172 170 170 174 177 179 181 184 187 190 192 191 188 188 190 194 197 196 191 187 183 181 183 184 187 189 191 196 204 212 219 227 232 236 237 231 218 218 241 272 286 293
16 16 20 22 26 31 35 35 36 38 40 37 39 49 46 28 9 2 352 317 201 145 135 137 146 151 154 156 155 151 150 150 148 148 154 159 157 152 150 155 162 167 168 169 172 175 179 182 183 184 187 189 190 190 188 186 188 189 188 187 182 177 175 175 176 177 178 179 185 191 199 210 218 224 229 233 233 225 215 212 225 251 271 278 285
21 24 33 44 51 54 56 53 49 55 69 73 67 62 63 58 45 29 18 7 5 91 131 132 128 129 138 145 149 148 145 144 145 148 152 155 156 157 159 163 167 169 168 170 176 179 180 183 186 187 188 187 185 186 186 186 185 181 177 177 177 176 179 181 181 181 181 182 189 199 208 218 226 231 235 234 225 216 214 222 235 249 263 273 281
18 27 45 66 77 78 79 75 64 52 54 71 79 75 69 68 64 50 30 22 16 13 76 119 117 115 123 135 143 145 141 139 141 144 149 154 159 164 167 168 169 170 170 174 179 181 181 184 187 188 186 183 182 183 183 180 177 173 172 175 179 181 184 184 182 183 186 191 202 214 225 235 241 244 242 234 224 218 219 226 237 249 260 269 275
20 31 54 79 89 89 88 88 86 79 68 69 81 84 78 77 79 69 47 43 42 27 27 69 95 109 123 133 139 138 134 133 138 143 149 155 162 167 169 167 166 168 171 174 178 180 181 184 185 184 181 180 180 180 177 173 172 174 176 180 183 184 185 185 185 188 196 205 217 225 231 241 247 247 242 232 224 220 220 227 241 253 261 267 273
43 57 81 94 96 98 98 92 84 85 87 84 88 94 94 95 100 99 87 77 74 66 58 67 86 111 130 136 137 134 131 134 143 149 152 156 161 165 166 165 165 168 171 173 175 178 181 182 181 179 178 177 176 175 174 173 174 178 183 187 187 187 188 190 193 198 204 210 218 222 227 238 246 245 237 228 222 222 225 232 246 257 263 268 274
78 77 77 86 88 86 92 94 89 86 90 91 88 93 101 105 107 107 103 95 91 91 95 101 110 123 130 131 132 134 135 141 149 154 156 158 160 161 165 168 170 171 171 171 173 176 178 179 177 176 175 175 174 174 174 176 179 183 187 190 191 191 193 196 200 204 205 208 214 221 230 241 246 242 233 225 222 224 230 240 252 260 262 265 272
82 75 62 60 77 68 57 76 95 99 98 97 95 92 92 94 96 95 93 91 92 95 102 110 118 125 128 130 135 139 141 145 150 155 157 157 157 161 169 175 176 176 174 173 173 175 177 177 175 174 173 173 174 175 176 179 183 187 189 192 194 195 199 202 204 205 205 210 219 228 236 242 243 237 230 225 224 227 236 250 259 261 259 259 264
55 59 49 27 33 58 58 59 86 101 101 102 108 112 107 100 97 96 95 94 95 101 110 117 123 128 130 132 139 144 145 146 150 154 154 154 158 165 173 178 178 177 176 175 175 176 177 176 173 172 173 174 175 176 178 180 185 189 192 197 200 203 206 208 207 205 208 214 223 232 238 240 236 230 224 224 229 238 248 258 261 258 254 252 256
31 27 24 13 1 9 49 57 49 85 106 110 112 115 116 115 116 117 118 115 110 112 123 133 139 139 137 136 142 149 150 150 153 155 155 157 163 169 172 175 175 174 174 175 175 176 176 174 172 172 174 175 175 176 177 179 183 189 195 201 207 210 212 212 209 209 213 219 226 234 237 235 230 226 225 232 242 251 259 262 258 252 246 245 249
38 22 6 2 360 350 343 343 325 277 161 138 125 117 119 128 131 129 127 126 125 125 132 143 152 155 152 146 144 147 150 152 154 156 159 163 167 167 167 169 169 168 170 173 175 174 174 174 173 173 174 174 175 176 176 176 178 183 191 201 209 214 216 217 216 216 220 227 235 239 237 231 229 231 238 247 255 260 263 261 253 244 239 238 244
33 31 14 2 1 354 306 263 238 221 199 168 144 135 140 147 147 143 143 145 146 145 145 152 161 165 160 148 141 145 153 157 158 160 164 167 167 165 164 164 164 166 169 173 174 174 174 175 176 175 174 173 174 175 174 172 170 174 181 191 201 208 211 211 213 219 228 236 241 241 235 234 238 245 251 257 260 262 261 255 244 238 237 237 247
29 32 27 14 8 9 354 301 273 219 150 145 153 157 159 162 165 165 165 164 164 164 163 164 166 166 160 151 147 151 159 163 164 165 167 168 167 165 164 164 164 166 170 173 176 177 178 179 179 177 174 173 173 172 168 164 163 166 172 179 186 193 199 203 209 221 232 235 235 234 236 243 252 256 258 261 260 258 255 247 239 238 239 242 255
37 38 35 30 26 26 25 19 21 41 70 114 178 181 167 164 169 172 169 166 167 169 168 167 167 165 161 157 156 159 163 166 168 169 170 170 168 168 168 167 167 168 169 172 176 178 180 181 181 179 176 175 172 167 162 160 162 166 171 179 189 199 210 213 212 216 220 222 226 235 246 258 265 266 266 264 259 254 251 244 238 239 244 249 260
37 35 30 26 26 26 22 18 17 24 43 69 132 182 158 162 172 175 174 174 173 172 169 167 167 166 162 161 161 163 163 166 170 173 174 173 173 172 172 171 170 169 170 173 176 178 180 182 183 182 180 177 171 165 160 158 160 164 171 180 189 197 193 177 176 188 201 212 226 242 256 266 272 273 269 262 255 251 248 241 237 241 247 248 253
37 35 32 29 29 29 28 27 23 17 16 20 17 4 350 159 161 174 185 188 179 169 165 164 166 167 168 167 166 165 165 167 171 173 174 175 176 177 177 175 173 172 175 179 181 181 183 185 185 185 183 179 172 166 162 159 157 159 162 165 166 163 153 148 156 172 188 203 225 247 259 268 274 273 267 258 251 244 238 233 235 244 248 244 251
40 39 38 36 36 35 34 34 33 28 23 24 23 7 343 81 102 142 166 157 126 131 143 152 159 166 170 170 169 169 168 168 168 169 171 173 176 179 181 180 178 178 182 187 187 186 187 189 190 189 187 183 176 171 169 166 161 157 155 153 153 150 144 142 150 162 173 192 221 245 259 268 273 271 264 255 242 228 221 227 239 248 247 247 270